Flag for South Africa Weather past 2 weeks in Stellenbosch, South Africa

Now
54 °F

Sunny.


Feels Like: 51 °F
Forecast: 42 / 53 °F
Wind: 8 mph from South

Location: Cape Town International Airport

Current Time: Jul 28, 2015 at 11:13:50 AM

Latest Report: Jul 28, 2015 at 10:00 AM


Visibility: 10 mi

Pressure: 30.04 "Hg

Humidity: 88%

Dew point: 50 °F

Location of StellenboschLocation

Historic Weather in Stellenbosch — Graph

°F

Stellenbosch temperature yesterday

Maximum temperature yesterday: 57 °F (at 12:00 PM)
Minimum temperature yesterday: 41 °F (at 5:00 AM)
Average temperature yesterday: 50 °F

Past Weeks' High & Low Weather Summary

 TemperatureHumidityPressure
High64 °F (Jul 22, 12:00 PM)100% (Jul 16, 2:00 AM)30.45 "Hg (Jul 16, 2:00 AM)
Low36 °F (Jul 15, 7:00 AM)39% (Jul 14, 1:00 PM)29.86 "Hg (Jul 17, 3:00 PM)
Average52 °F82%30.18 "Hg
* Reported Jul 13 10:00 AM — Jul 28 10:00 AM, Stellenbosch, Weather by CustomWeather, © 2015

Note: Actual official high and low records may vary slightly from our data, if they occured in-between our weather recording intervals... More about our weather records

Advertising

Stellenbosch weather history for previous 24 hours

 ConditionsComfort  
Time TempWeatherWind HumidityBarometerVisibility
10:00 AM
Tue, Jul 28
54 °FSunny.8 mph88%30.04 "Hg10 mi
9:00 AM48 °FClear.3 mph100%30.01 "Hg5 mi
8:00 AM46 °FClear.6 mph93%30.04 "Hg4 mi
7:00 AM45 °FPassing clouds.3 mph100%30.01 "HgN/A
6:00 AM46 °FClear.2 mph100%30.01 "Hg10 mi
5:00 AM48 °FClear.7 mph94%30.01 "Hg10 mi
4:00 AM48 °FClear.2 mph94%30.04 "Hg10 mi
3:00 AM50 °FClear.9 mph94%30.04 "Hg10 mi
2:00 AM50 °FClear.9 mph100%30.04 "Hg10 mi
1:00 AM52 °FClear.10 mph94%30.07 "Hg10 mi
12:00 AM52 °FClear.10 mph94%30.07 "Hg10 mi
11:00 PM
Mon, Jul 27
52 °FClear.9 mph94%30.09 "Hg10 mi
10:00 PM52 °FClear.10 mph88%30.09 "Hg10 mi
9:00 PM52 °FClear.9 mph88%30.09 "Hg10 mi
8:00 PM52 °FClear.9 mph88%30.09 "Hg10 mi
7:00 PM52 °FClear.8 mph88%30.12 "Hg10 mi
6:00 PM54 °FClear.12 mph82%30.09 "Hg10 mi
5:00 PM55 °FSunny.14 mph72%30.09 "Hg10 mi
4:00 PM57 °FSunny.14 mph67%30.09 "Hg10 mi
3:00 PM57 °FSunny.14 mph67%30.12 "Hg10 mi
2:00 PM57 °FSunny.13 mph63%30.12 "Hg10 mi
1:00 PM55 °FSunny.12 mph67%30.15 "Hg10 mi
12:00 PM57 °FPassing clouds.10 mph67%30.18 "HgN/A
11:00 AM55 °FPassing clouds.8 mph77%30.21 "HgN/A
Weather by CustomWeather, © 2015

See weather overviewHow to use our weather pages